Time,TemperatureF,DewpointF,PressureIn,WindDirection,WindDirectionDegrees,WindSpeedMPH,WindSpeedGustMPH,Humidity,HourlyPrecipIn,Conditions,Clouds,dailyrainin,SoftwareType,DateUTC
2013-02-06 00:00:00,25.5,24.6,29.91,SSE,167,0.0,0.0,96,0.00,-SN,,0.00,WeatherDisplay:10.37,2013-02-06 05:00:00,
2013-02-06 00:02:00,25.4,24.5,29.91,SSE,167,0.0,0.0,96,0.00,RA,,0.00,WeatherDisplay:10.37,2013-02-06 05:02:00,
2013-02-06 00:07:00,25.4,24.5,29.91,SSE,167,0.0,0.0,96,0.00,RA,,0.00,WeatherDisplay:10.37,2013-02-06 05:07:00,
2013-02-06 00:08:00,25.6,24.7,29.91,SSE,167,0.0,0.0,96,0.00,RA,,0.00,WeatherDisplay:10.37,2013-02-06 05:08:00,
2013-02-06 00:14:00,25.5,24.6,29.90,SSE,167,0.0,0.0,96,0.00,OVC,,0.00,WeatherDisplay:10.37,2013-02-06 05:14:00,
2013-02-06 00:19:00,25.5,24.6,29.90,SSE,167,0.0,0.0,96,0.00,OVC,,0.00,WeatherDisplay:10.37,2013-02-06 05:19:00,
2013-02-06 00:20:00,25.5,24.6,29.91,SSE,167,0.0,0.0,96,0.00,OVC,,0.00,WeatherDisplay:10.37,2013-02-06 05:20:00,
2013-02-06 00:25:00,25.5,24.6,29.91,SSE,167,0.0,0.0,96,0.00,OVC,,0.00,WeatherDisplay:10.37,2013-02-06 05:25:00,
2013-02-06 00:30:00,25.5,24.6,29.91,SSE,167,0.0,0.0,96,0.00,OVC,,0.00,WeatherDisplay:10.37,2013-02-06 05:30:00,
2013-02-06 00:35:00,25.5,24.6,29.91,SSE,167,0.0,0.0,96,0.00,OVC,,0.00,WeatherDisplay:10.37,2013-02-06 05:35:00,
2013-02-06 00:40:00,25.6,24.7,29.91,SSE,167,0.0,0.0,96,0.00,OVC,,0.00,WeatherDisplay:10.37,2013-02-06 05:40:00,
2013-02-06 00:45:00,25.6,24.7,29.91,SSE,167,0.0,0.0,96,0.00,OVC,,0.00,WeatherDisplay:10.37,2013-02-06 05:45:00,
2013-02-06 00:50:00,25.7,24.8,29.91,SSE,167,0.0,0.0,96,0.00,OVC,,0.00,WeatherDisplay:10.37,2013-02-06 05:50:00,
2013-02-06 00:55:00,25.5,24.6,29.91,SSE,167,0.0,0.0,96,0.00,OVC,,0.00,WeatherDisplay:10.37,2013-02-06 05:55:00,
2013-02-06 01:00:00,25.5,24.6,29.91,SSE,167,0.0,0.0,96,0.00,OVC,,0.00,WeatherDisplay:10.37,2013-02-06 06:00:00,
2013-02-06 01:05:00,25.5,24.6,29.91,SSE,167,0.0,0.0,96,0.00,-SN,,0.00,WeatherDisplay:10.37,2013-02-06 06:05:00,
2013-02-06 01:10:00,25.6,24.7,29.90,SSE,167,0.0,0.0,96,0.00,-SN,,0.00,WeatherDisplay:10.37,2013-02-06 06:10:00,
2013-02-06 01:15:00,25.5,24.6,29.90,SSE,167,0.0,0.0,96,0.00,-SN,,0.00,WeatherDisplay:10.37,2013-02-06 06:15:00,
2013-02-06 01:20:00,25.3,24.4,29.90,SSE,167,0.0,0.0,96,0.00,-SN,,0.00,WeatherDisplay:10.37,2013-02-06 06:20:00,
2013-02-06 01:25:00,25.6,24.7,29.90,SSE,167,0.0,0.0,96,0.00,-SN,,0.00,WeatherDisplay:10.37,2013-02-06 06:25:00,
2013-02-06 01:30:00,25.5,24.6,29.90,SSE,167,0.0,0.0,96,0.00,-SN,,0.00,WeatherDisplay:10.37,2013-02-06 06:30:00,
2013-02-06 01:35:00,25.6,24.7,29.90,SSE,167,0.0,0.0,96,0.00,-SN,,0.00,WeatherDisplay:10.37,2013-02-06 06:35:00,
2013-02-06 01:40:00,25.5,24.6,29.90,SSE,167,0.0,0.0,96,0.00,-SN,,0.00,WeatherDisplay:10.37,2013-02-06 06:40:00,
2013-02-06 01:45:00,25.6,24.7,29.91,SSE,167,0.0,0.0,96,0.00,-SN,,0.00,WeatherDisplay:10.37,2013-02-06 06:45:00,
2013-02-06 01:50:00,25.7,25.0,29.90,SSE,167,0.0,0.0,97,0.00,-SN,,0.00,WeatherDisplay:10.37,2013-02-06 06:50:00,
2013-02-06 01:55:00,25.6,24.9,29.90,SSE,167,0.0,0.0,97,0.00,-SN,,0.00,WeatherDisplay:10.37,2013-02-06 06:55:00,
2013-02-06 02:00:00,25.7,25.0,29.90,SSE,167,0.0,0.0,97,0.00,-SN,,0.00,WeatherDisplay:10.37,2013-02-06 07:00:00,
2013-02-06 02:05:00,25.8,25.1,29.90,SSE,167,0.0,0.0,97,0.00,-SN,,0.00,WeatherDisplay:10.37,2013-02-06 07:05:00,
2013-02-06 02:10:00,25.7,25.0,29.90,SSE,167,0.0,0.0,97,0.00,-SN,,0.00,WeatherDisplay:10.37,2013-02-06 07:10:00,
2013-02-06 02:15:00,25.7,25.0,29.91,SSE,167,0.0,0.0,97,0.00,-SN,,0.00,WeatherDisplay:10.37,2013-02-06 07:15:00,
2013-02-06 02:20:00,25.6,24.9,29.91,SSE,167,0.0,0.0,97,0.00,OVC,,0.00,WeatherDisplay:10.37,2013-02-06 07:20:00,
2013-02-06 02:25:00,25.7,25.0,29.91,SSE,167,0.0,0.0,97,0.00,OVC,,0.00,WeatherDisplay:10.37,2013-02-06 07:25:00,
2013-02-06 02:30:00,25.7,25.0,29.91,SSE,167,0.0,0.0,97,0.00,OVC,,0.00,WeatherDisplay:10.37,2013-02-06 07:30:00,
2013-02-06 02:35:00,25.7,25.0,29.91,SSE,167,0.0,0.0,97,0.00,OVC,,0.00,WeatherDisplay:10.37,2013-02-06 07:35:00,
2013-02-06 02:40:00,25.7,25.0,29.91,SSE,167,0.0,0.0,97,0.00,OVC,,0.00,WeatherDisplay:10.37,2013-02-06 07:40:00,
2013-02-06 02:45:00,25.6,24.9,29.91,SSE,167,0.0,0.0,97,0.00,OVC,,0.00,WeatherDisplay:10.37,2013-02-06 07:45:00,
2013-02-06 02:50:00,25.8,25.1,29.91,SSE,167,0.0,0.0,97,0.00,OVC,,0.00,WeatherDisplay:10.37,2013-02-06 07:50:00,
2013-02-06 02:55:00,25.8,25.1,29.91,SSE,167,0.0,0.0,97,0.00,OVC,,0.00,WeatherDisplay:10.37,2013-02-06 07:55:00,
2013-02-06 03:00:00,25.9,25.2,29.90,SSE,167,0.0,0.0,97,0.00,OVC,,0.00,WeatherDisplay:10.37,2013-02-06 08:00:00,
2013-02-06 03:05:00,25.8,25.1,29.91,SSE,167,0.0,0.0,97,0.00,OVC,,0.00,WeatherDisplay:10.37,2013-02-06 08:05:00,
2013-02-06 03:10:00,25.8,25.1,29.91,SSE,167,0.0,0.0,97,0.00,OVC,,0.00,WeatherDisplay:10.37,2013-02-06 08:10:00,
2013-02-06 03:15:00,25.9,25.2,29.91,SSE,167,0.0,0.0,97,0.00,OVC,,0.00,WeatherDisplay:10.37,2013-02-06 08:15:00,
2013-02-06 03:20:00,25.8,25.1,29.91,SSE,167,0.0,0.0,97,0.00,OVC,,0.00,WeatherDisplay:10.37,2013-02-06 08:20:00,
2013-02-06 03:25:00,25.7,25.0,29.91,SSE,167,0.0,0.0,97,0.00,OVC,,0.00,WeatherDisplay:10.37,2013-02-06 08:25:00,
2013-02-06 03:30:00,25.8,25.1,29.91,SSE,167,0.0,0.0,97,0.00,OVC,,0.00,WeatherDisplay:10.37,2013-02-06 08:30:00,
2013-02-06 03:35:00,25.9,25.2,29.91,SSE,167,0.0,0.0,97,0.00,OVC,,0.00,WeatherDisplay:10.37,2013-02-06 08:35:00,
2013-02-06 03:40:00,25.9,25.2,29.91,SSE,167,0.0,0.0,97,0.00,OVC,,0.00,WeatherDisplay:10.37,2013-02-06 08:40:00,
2013-02-06 03:45:00,26.0,25.3,29.92,SSE,167,0.0,0.0,97,0.00,OVC,,0.00,WeatherDisplay:10.37,2013-02-06 08:45:00,
2013-02-06 03:50:00,25.8,25.1,29.91,SSE,167,0.0,0.0,97,0.00,OVC,,0.00,WeatherDisplay:10.37,2013-02-06 08:50:00,
2013-02-06 03:56:00,25.8,25.1,29.92,SSE,167,0.0,0.0,97,0.00,OVC,,0.00,WeatherDisplay:10.37,2013-02-06 08:56:00,
2013-02-06 04:01:00,25.8,25.1,29.92,SSE,167,0.0,0.0,97,0.00,OVC,,0.00,WeatherDisplay:10.37,2013-02-06 09:01:00,
2013-02-06 04:06:00,25.8,25.1,29.91,SSE,167,0.0,0.0,97,0.00,OVC,,0.00,WeatherDisplay:10.37,2013-02-06 09:06:00,
2013-02-06 04:11:00,25.7,25.0,29.92,SSE,167,0.0,0.0,97,0.00,OVC,,0.00,WeatherDisplay:10.37,2013-02-06 09:11:00,
2013-02-06 04:16:00,25.7,25.0,29.92,SSE,167,0.0,0.0,97,0.00,OVC,,0.00,WeatherDisplay:10.37,2013-02-06 09:16:00,
2013-02-06 04:21:00,25.6,24.9,29.93,West,280,0.0,1.1,97,0.00,OVC,,0.00,WeatherDisplay:10.37,2013-02-06 09:21:00,
2013-02-06 04:26:00,25.7,25.0,29.93,West,261,2.3,2.3,97,0.00,OVC,,0.00,WeatherDisplay:10.37,2013-02-06 09:26:00,
2013-02-06 04:31:00,25.7,25.0,29.93,West,261,0.0,0.0,97,0.00,OVC,,0.00,WeatherDisplay:10.37,2013-02-06 09:31:00,
2013-02-06 04:36:00,25.7,25.0,29.93,WSW,239,0.0,0.0,97,0.00,OVC,,0.00,WeatherDisplay:10.37,2013-02-06 09:36:00,
2013-02-06 04:41:00,25.7,25.0,29.93,WSW,239,0.0,0.0,97,0.00,OVC,,0.00,WeatherDisplay:10.37,2013-02-06 09:41:00,
2013-02-06 04:46:00,25.8,25.1,29.93,WSW,239,0.0,0.0,97,0.00,OVC,,0.00,WeatherDisplay:10.37,2013-02-06 09:46:00,
2013-02-06 04:51:00,26.1,25.4,29.93,WSW,239,0.0,0.0,97,0.00,OVC,,0.00,WeatherDisplay:10.37,2013-02-06 09:51:00,
2013-02-06 04:56:00,26.1,25.4,29.94,WSW,239,0.0,0.0,97,0.00,OVC,,0.00,WeatherDisplay:10.37,2013-02-06 09:56:00,
2013-02-06 05:01:00,26.2,25.5,29.94,West,271,0.7,0.7,97,0.00,OVC,,0.00,WeatherDisplay:10.37,2013-02-06 10:01:00,
2013-02-06 05:06:00,26.5,25.8,29.94,WSW,240,2.3,2.3,97,0.00,OVC,,0.00,WeatherDisplay:10.37,2013-02-06 10:06:00,
2013-02-06 05:11:00,26.6,25.9,29.94,SW,223,5.8,5.8,97,0.00,OVC,,0.00,WeatherDisplay:10.37,2013-02-06 10:11:00,
2013-02-06 05:16:00,26.6,25.9,29.94,WSW,241,4.4,4.4,97,0.00,OVC,,0.00,WeatherDisplay:10.37,2013-02-06 10:16:00,
2013-02-06 05:21:00,26.9,26.2,29.95,West,278,0.0,0.0,97,0.00,OVC,,0.00,WeatherDisplay:10.37,2013-02-06 10:21:00,
2013-02-06 05:26:00,26.9,26.2,29.95,West,278,0.0,0.0,97,0.00,OVC,,0.00,WeatherDisplay:10.37,2013-02-06 10:26:00,
2013-02-06 05:31:00,26.9,26.2,29.95,West,278,0.0,0.0,97,0.00,OVC,,0.00,WeatherDisplay:10.37,2013-02-06 10:31:00,
2013-02-06 05:36:00,27.0,26.3,29.95,West,278,0.0,0.0,97,0.00,OVC,,0.00,WeatherDisplay:10.37,2013-02-06 10:36:00,
2013-02-06 05:41:00,27.1,26.4,29.95,West,278,0.0,0.0,97,0.00,OVC,,0.00,WeatherDisplay:10.37,2013-02-06 10:41:00,
2013-02-06 05:46:00,27.2,26.5,29.95,West,278,0.0,0.0,97,0.00,OVC,,0.00,WeatherDisplay:10.37,2013-02-06 10:46:00,
2013-02-06 05:51:00,27.2,26.5,29.95,West,278,0.0,0.0,97,0.00,OVC,,0.00,WeatherDisplay:10.37,2013-02-06 10:51:00,
2013-02-06 05:56:00,27.2,26.5,29.95,WNW,287,0.0,0.0,97,0.00,OVC,,0.00,WeatherDisplay:10.37,2013-02-06 10:56:00,
2013-02-06 06:01:00,27.0,26.3,29.95,West,265,0.0,0.0,97,0.00,OVC,,0.00,WeatherDisplay:10.37,2013-02-06 11:01:00,
2013-02-06 06:06:00,27.1,26.4,29.95,West,265,0.0,0.0,97,0.00,OVC,,0.00,WeatherDisplay:10.37,2013-02-06 11:06:00,
2013-02-06 06:11:00,26.9,26.2,29.96,West,265,0.0,0.0,97,0.00,OVC,,0.00,WeatherDisplay:10.37,2013-02-06 11:11:00,
2013-02-06 06:16:00,26.9,26.2,29.95,West,265,0.0,0.0,97,0.00,BKN,,0.00,WeatherDisplay:10.37,2013-02-06 11:16:00,
2013-02-06 06:21:00,27.0,26.3,29.95,West,265,0.0,0.0,97,0.00,BKN,,0.00,WeatherDisplay:10.37,2013-02-06 11:21:00,
2013-02-06 06:26:00,26.6,25.9,29.96,West,265,0.0,0.0,97,0.00,BKN,,0.00,WeatherDisplay:10.37,2013-02-06 11:26:00,
2013-02-06 06:31:00,26.4,25.7,29.96,NNW,329,6.9,6.9,97,0.00,SCT,,0.00,WeatherDisplay:10.37,2013-02-06 11:31:00,
2013-02-06 06:36:00,26.0,25.3,29.96,West,264,0.0,0.0,97,0.00,SCT,,0.00,WeatherDisplay:10.37,2013-02-06 11:36:00,
2013-02-06 06:41:00,26.0,25.3,29.97,WNW,299,4.6,4.6,97,0.00,SCT,,0.00,WeatherDisplay:10.37,2013-02-06 11:41:00,
2013-02-06 06:46:00,25.8,25.1,29.97,West,271,8.1,8.1,97,0.00,SCT,,0.00,WeatherDisplay:10.37,2013-02-06 11:46:00,
2013-02-06 06:51:00,25.8,25.1,29.97,NW,306,5.8,5.8,97,0.00,SCT,,0.00,WeatherDisplay:10.37,2013-02-06 11:51:00,
2013-02-06 06:56:00,26.1,25.4,29.97,WNW,285,5.8,5.8,97,0.00,SCT,,0.00,WeatherDisplay:10.37,2013-02-06 11:56:00,
2013-02-06 07:01:00,26.2,25.5,29.97,NW,319,6.9,6.9,97,0.00,SCT,,0.00,WeatherDisplay:10.37,2013-02-06 12:01:00,
2013-02-06 07:06:00,25.9,25.2,29.97,WNW,301,11.5,11.5,97,0.00,BKN,,0.00,WeatherDisplay:10.37,2013-02-06 12:06:00,
2013-02-06 07:11:00,25.8,25.1,29.98,WNW,288,6.9,6.9,97,0.00,BKN,,0.00,WeatherDisplay:10.37,2013-02-06 12:11:00,
2013-02-06 07:16:00,25.8,25.1,29.97,West,271,5.8,5.8,97,0.00,BKN,,0.00,WeatherDisplay:10.37,2013-02-06 12:16:00,
2013-02-06 07:21:00,25.8,25.1,29.98,NW,304,3.5,3.5,97,0.00,BKN,,0.00,WeatherDisplay:10.37,2013-02-06 12:21:00,
2013-02-06 07:26:00,25.7,24.8,29.98,NE,34,1.1,1.1,96,0.00,BKN,,0.00,WeatherDisplay:10.37,2013-02-06 12:26:00,
2013-02-06 07:31:00,25.6,24.9,29.99,NNW,333,1.1,1.1,97,0.00,BKN,,0.00,WeatherDisplay:10.37,2013-02-06 12:31:00,
2013-02-06 07:37:00,25.4,24.7,29.99,WNW,282,3.5,3.5,97,0.00,BKN,,0.00,WeatherDisplay:10.37,2013-02-06 12:37:00,
2013-02-06 07:42:00,25.4,24.5,29.99,WNW,282,0.0,0.0,96,0.00,BKN,,0.00,WeatherDisplay:10.37,2013-02-06 12:42:00,
2013-02-06 07:47:00,25.4,24.5,29.99,WNW,296,0.0,0.0,96,0.00,OVC,,0.00,WeatherDisplay:10.37,2013-02-06 12:47:00,
2013-02-06 07:52:00,25.3,24.4,30.00,WSW,248,3.2,3.2,96,0.00,OVC,,0.00,WeatherDisplay:10.37,2013-02-06 12:52:00,
2013-02-06 07:57:00,25.3,24.4,30.00,WSW,247,0.0,0.0,96,0.00,OVC,,0.00,WeatherDisplay:10.37,2013-02-06 12:57:00,
2013-02-06 08:02:00,25.5,24.6,30.00,West,275,0.0,0.0,96,0.00,OVC,,0.00,WeatherDisplay:10.37,2013-02-06 13:02:00,
2013-02-06 08:07:00,25.7,24.8,30.00,West,275,0.0,0.0,96,0.00,OVC,,0.00,WeatherDisplay:10.37,2013-02-06 13:07:00,
2013-02-06 08:12:00,25.9,25.0,30.01,West,275,0.0,0.0,96,0.00,OVC,,0.00,WeatherDisplay:10.37,2013-02-06 13:12:00,
2013-02-06 08:17:00,26.1,25.2,30.01,West,275,0.0,0.0,96,0.00,OVC,,0.00,WeatherDisplay:10.37,2013-02-06 13:17:00,
2013-02-06 08:22:00,26.4,25.5,30.00,West,275,5.8,5.8,96,0.00,OVC,,0.00,WeatherDisplay:10.37,2013-02-06 13:22:00,
2013-02-06 08:27:00,26.6,25.7,30.01,West,272,5.8,5.8,96,0.00,OVC,,0.00,WeatherDisplay:10.37,2013-02-06 13:27:00,
2013-02-06 08:32:00,27.0,25.8,30.01,WSW,240,5.8,5.8,95,0.00,OVC,,0.00,WeatherDisplay:10.37,2013-02-06 13:32:00,
2013-02-06 08:37:00,27.2,26.0,30.01,SW,222,5.8,5.8,95,0.00,OVC,,0.00,WeatherDisplay:10.37,2013-02-06 13:37:00,
2013-02-06 08:42:00,27.8,26.1,30.01,WNW,287,4.6,4.6,93,0.00,OVC,,0.00,WeatherDisplay:10.37,2013-02-06 13:42:00,
2013-02-06 08:47:00,28.2,26.2,30.02,West,275,0.0,0.0,92,0.00,OVC,,0.00,WeatherDisplay:10.37,2013-02-06 13:47:00,
2013-02-06 08:52:00,28.5,26.2,30.02,SW,230,6.9,0.0,91,0.00,OVC,,0.00,WeatherDisplay:10.37,2013-02-06 13:52:00,
2013-02-06 08:57:00,29.0,26.5,30.02,West,270,0.0,0.0,90,0.00,OVC,,0.00,WeatherDisplay:10.37,2013-02-06 13:57:00,
2013-02-06 09:02:00,29.4,26.9,30.01,WSW,243,2.3,2.3,90,0.00,OVC,,0.00,WeatherDisplay:10.37,2013-02-06 14:02:00,
2013-02-06 09:07:00,29.4,26.3,30.01,West,267,5.8,0.0,88,0.00,OVC,,0.00,WeatherDisplay:10.37,2013-02-06 14:07:00,
2013-02-06 09:12:00,29.7,26.3,30.01,WSW,241,3.5,3.5,87,0.00,OVC,,0.00,WeatherDisplay:10.37,2013-02-06 14:12:00,
2013-02-06 09:18:00,30.0,26.6,30.00,West,268,0.0,0.1,87,0.00,FEW,,0.00,WeatherDisplay:10.37,2013-02-06 14:18:00,
2013-02-06 09:23:00,30.0,26.4,30.00,WSW,243,2.3,2.3,86,0.00,FEW,,0.00,WeatherDisplay:10.37,2013-02-06 14:23:00,
2013-02-06 09:28:00,30.3,26.1,30.00,WNW,292,4.6,4.6,84,0.00,FEW,,0.00,WeatherDisplay:10.37,2013-02-06 14:28:00,
2013-02-06 09:33:00,30.4,25.9,30.00,WNW,288,1.1,0.0,83,0.00,FEW,,0.00,WeatherDisplay:10.37,2013-02-06 14:33:00,
2013-02-06 09:38:00,30.5,26.0,30.00,West,274,1.1,1.1,83,0.00,FEW,,0.00,WeatherDisplay:10.37,2013-02-06 14:38:00,
2013-02-06 09:43:00,30.8,26.0,30.00,West,268,8.1,8.1,82,0.00,FEW,,0.00,WeatherDisplay:10.37,2013-02-06 14:43:00,
2013-02-06 09:48:00,31.0,26.2,30.00,West,261,0.0,0.0,82,0.00,FEW,,0.00,WeatherDisplay:10.37,2013-02-06 14:48:00,
2013-02-06 09:53:00,31.3,26.2,30.00,West,272,6.9,6.9,81,0.00,FEW,,0.00,WeatherDisplay:10.37,2013-02-06 14:53:00,
2013-02-06 09:58:00,31.7,26.0,30.01,NNE,27,1.1,1.1,79,0.00,FEW,,0.00,WeatherDisplay:10.37,2013-02-06 14:58:00,
2013-02-06 10:03:00,32.1,26.4,30.01,WNW,284,0.0,0.0,79,0.00,FEW,,0.00,WeatherDisplay:10.37,2013-02-06 15:03:00,
2013-02-06 10:08:00,32.4,26.3,30.02,WSW,257,0.0,0.0,78,0.00,FEW,,0.00,WeatherDisplay:10.37,2013-02-06 15:08:00,
2013-02-06 10:13:00,32.4,25.4,30.02,NW,325,11.5,11.5,75,0.00,FEW,,0.00,WeatherDisplay:10.37,2013-02-06 15:13:00,
2013-02-06 10:18:00,32.2,25.2,30.02,WNW,295,11.5,11.5,75,0.00,FEW,,0.00,WeatherDisplay:10.37,2013-02-06 15:18:00,
2013-02-06 10:23:00,32.0,25.0,30.02,WNW,287,5.8,5.8,75,0.00,FEW,,0.00,WeatherDisplay:10.37,2013-02-06 15:23:00,
2013-02-06 10:28:00,32.0,25.3,30.03,West,268,3.5,0.0,76,0.00,FEW,,0.00,WeatherDisplay:10.37,2013-02-06 15:28:00,
2013-02-06 10:33:00,32.4,25.7,30.03,West,268,0.0,0.0,76,0.00,FEW,,0.00,WeatherDisplay:10.37,2013-02-06 15:33:00,
2013-02-06 10:38:00,32.5,25.2,30.03,NNW,328,5.8,5.8,74,0.00,FEW,,0.00,WeatherDisplay:10.37,2013-02-06 15:38:00,
2013-02-06 10:43:00,32.6,25.6,30.03,West,263,0.0,0.0,75,0.00,FEW,,0.00,WeatherDisplay:10.37,2013-02-06 15:43:00,
2013-02-06 10:48:00,32.5,25.2,30.03,WNW,298,6.9,6.9,74,0.00,CLR,,0.00,WeatherDisplay:10.37,2013-02-06 15:48:00,
2013-02-06 10:53:00,32.6,25.6,30.03,WNW,287,6.9,6.9,75,0.00,CLR,,0.00,WeatherDisplay:10.37,2013-02-06 15:53:00,
2013-02-06 10:59:00,32.8,25.5,30.03,WNW,295,10.4,10.4,74,0.00,CLR,,0.00,WeatherDisplay:10.37,2013-02-06 15:59:00,
2013-02-06 11:05:00,32.5,25.5,30.03,West,260,9.2,9.2,75,0.00,OVC,,0.00,WeatherDisplay:10.37,2013-02-06 16:05:00,
2013-02-06 11:10:00,32.8,25.8,30.02,WSW,253,10.4,10.4,75,0.00,OVC,,0.00,WeatherDisplay:10.37,2013-02-06 16:10:00,
2013-02-06 11:15:00,33.0,25.7,30.02,West,272,9.2,9.2,74,0.00,OVC,,0.00,WeatherDisplay:10.37,2013-02-06 16:15:00,
2013-02-06 11:20:00,33.2,25.5,30.02,WNW,295,5.8,5.8,73,0.00,OVC,,0.00,WeatherDisplay:10.37,2013-02-06 16:20:00,
2013-02-06 11:25:00,33.3,25.3,30.01,West,277,6.9,6.9,72,0.00,OVC,,0.00,WeatherDisplay:10.37,2013-02-06 16:25:00,
2013-02-06 11:30:00,33.5,25.5,30.01,NNW,336,9.2,9.2,72,0.00,OVC,,0.00,WeatherDisplay:10.37,2013-02-06 16:30:00,
2013-02-06 11:35:00,33.7,25.3,30.01,North,357,10.4,10.4,71,0.00,OVC,,0.00,WeatherDisplay:10.37,2013-02-06 16:35:00,
2013-02-06 11:40:00,34.1,26.1,30.01,WSW,250,1.5,1.5,72,0.00,OVC,,0.00,WeatherDisplay:10.37,2013-02-06 16:40:00,
2013-02-06 11:45:00,34.3,25.6,30.01,WNW,301,15.0,15.0,70,0.00,OVC,,0.00,WeatherDisplay:10.37,2013-02-06 16:45:00,
2013-02-06 11:50:00,34.4,25.3,30.01,West,263,9.2,9.2,69,0.00,OVC,,0.00,WeatherDisplay:10.37,2013-02-06 16:50:00,
2013-02-06 11:55:00,34.3,24.9,30.01,WNW,295,13.8,13.8,68,0.00,OVC,,0.00,WeatherDisplay:10.37,2013-02-06 16:55:00,
2013-02-06 12:00:00,34.6,25.5,30.01,West,275,12.7,12.7,69,0.00,OVC,,0.00,WeatherDisplay:10.37,2013-02-06 17:00:00,
2013-02-06 12:05:00,34.3,25.2,30.01,West,274,13.8,13.8,69,0.00,BKN,,0.00,WeatherDisplay:10.37,2013-02-06 17:05:00,
2013-02-06 12:11:00,33.8,24.7,30.01,NW,311,5.8,5.8,69,0.00,BKN,,0.00,WeatherDisplay:10.37,2013-02-06 17:11:00,
2013-02-06 12:16:00,33.4,24.7,30.02,West,271,12.7,12.7,70,0.00,BKN,,0.00,WeatherDisplay:10.37,2013-02-06 17:16:00,
2013-02-06 12:21:00,33.2,24.8,30.02,West,260,0.0,0.0,71,0.00,BKN,,0.00,WeatherDisplay:10.37,2013-02-06 17:21:00,
2013-02-06 12:26:00,33.1,24.4,30.02,WSW,237,9.2,9.2,70,0.00,BKN,,0.00,WeatherDisplay:10.37,2013-02-06 17:26:00,
2013-02-06 12:31:00,32.6,24.3,30.02,West,278,11.5,11.5,71,0.00,BKN,,0.00,WeatherDisplay:10.37,2013-02-06 17:31:00,
2013-02-06 12:36:00,32.9,24.9,30.02,WSW,248,9.2,9.2,72,0.00,BKN,,0.00,WeatherDisplay:10.37,2013-02-06 17:36:00,
2013-02-06 12:41:00,33.5,25.1,30.02,WSW,244,11.5,11.5,71,0.00,BKN,,0.00,WeatherDisplay:10.37,2013-02-06 17:41:00,
2013-02-06 12:46:00,33.7,25.0,30.02,West,265,6.9,6.9,70,0.00,BKN,,0.00,WeatherDisplay:10.37,2013-02-06 17:46:00,
2013-02-06 12:51:00,33.7,24.6,30.02,West,263,15.0,15.0,69,0.00,BKN,,0.00,WeatherDisplay:10.37,2013-02-06 17:51:00,
2013-02-06 12:56:00,33.5,24.5,30.02,NW,311,10.4,10.4,69,0.00,BKN,,0.00,WeatherDisplay:10.37,2013-02-06 17:56:00,
2013-02-06 13:01:00,33.4,24.4,30.03,WSW,251,4.8,4.8,69,0.00,BKN,,0.00,WeatherDisplay:10.37,2013-02-06 18:01:00,
2013-02-06 13:06:00,33.3,24.3,30.03,NW,319,11.5,11.5,69,0.00,BKN,,0.00,WeatherDisplay:10.37,2013-02-06 18:06:00,
2013-02-06 13:11:00,33.2,23.8,30.03,WNW,291,4.6,4.6,68,0.00,BKN,,0.00,WeatherDisplay:10.37,2013-02-06 18:11:00,
2013-02-06 13:16:00,33.3,23.9,30.03,West,278,8.1,8.1,68,0.00,BKN,,0.00,WeatherDisplay:10.37,2013-02-06 18:16:00,
2013-02-06 13:21:00,33.6,24.2,30.03,West,270,9.2,9.2,68,0.00,BKN,,0.00,WeatherDisplay:10.37,2013-02-06 18:21:00,
2013-02-06 13:26:00,33.8,24.4,30.03,WNW,298,6.9,6.9,68,0.00,BKN,,0.00,WeatherDisplay:10.37,2013-02-06 18:26:00,
2013-02-06 13:31:00,33.9,24.1,30.03,WNW,287,10.4,10.4,67,0.00,BKN,,0.00,WeatherDisplay:10.37,2013-02-06 18:31:00,
2013-02-06 13:36:00,33.8,23.7,30.03,WSW,254,11.5,11.5,66,0.00,BKN,,0.00,WeatherDisplay:10.37,2013-02-06 18:36:00,
2013-02-06 13:41:00,34.0,24.2,30.03,WSW,257,11.5,11.5,67,0.00,BKN,,0.00,WeatherDisplay:10.37,2013-02-06 18:41:00,
2013-02-06 13:46:00,34.1,23.6,30.03,WSW,253,10.4,10.4,65,0.00,BKN,,0.00,WeatherDisplay:10.37,2013-02-06 18:46:00,
2013-02-06 13:51:00,34.1,24.0,30.03,West,280,9.2,9.2,66,0.00,BKN,,0.00,WeatherDisplay:10.37,2013-02-06 18:51:00,
2013-02-06 13:56:00,33.9,23.4,30.03,West,281,11.5,11.5,65,0.00,BKN,,0.00,WeatherDisplay:10.37,2013-02-06 18:56:00,
2013-02-06 14:01:00,33.7,23.6,30.03,SSE,155,8.1,8.1,66,0.00,BKN,,0.00,WeatherDisplay:10.37,2013-02-06 19:01:00,
2013-02-06 14:06:00,33.5,23.4,30.03,West,278,10.4,10.4,66,0.00,BKN,,0.00,WeatherDisplay:10.37,2013-02-06 19:06:00,
2013-02-06 14:11:00,33.5,23.4,30.03,West,275,6.9,6.9,66,0.00,BKN,,0.00,WeatherDisplay:10.37,2013-02-06 19:11:00,
2013-02-06 14:16:00,34.0,23.5,30.03,WNW,301,10.8,10.8,65,0.00,OVC,,0.00,WeatherDisplay:10.37,2013-02-06 19:16:00,
2013-02-06 14:21:00,34.5,23.6,30.03,NNE,25,9.2,9.2,64,0.00,OVC,,0.00,WeatherDisplay:10.37,2013-02-06 19:21:00,
2013-02-06 14:26:00,34.6,23.7,30.04,WNW,301,0.0,0.0,64,0.00,OVC,,0.00,WeatherDisplay:10.37,2013-02-06 19:26:00,
2013-02-06 14:31:00,35.0,23.3,30.04,WNW,294,8.1,8.6,62,0.00,OVC,,0.00,WeatherDisplay:10.37,2013-02-06 19:31:00,
2013-02-06 14:37:00,34.9,22.4,30.04,WNW,282,13.8,13.8,60,0.00,OVC,,0.00,WeatherDisplay:10.37,2013-02-06 19:37:00,
2013-02-06 14:43:00,34.7,22.3,30.04,WNW,288,6.9,6.9,60,0.00,OVC,,0.00,WeatherDisplay:10.37,2013-02-06 19:43:00,
2013-02-06 14:48:00,34.8,22.7,30.05,WNW,296,2.3,2.3,61,0.00,OVC,,0.00,WeatherDisplay:10.37,2013-02-06 19:48:00,
2013-02-06 14:53:00,34.9,22.4,30.04,NW,319,9.2,9.2,60,0.00,OVC,,0.00,WeatherDisplay:10.37,2013-02-06 19:53:00,
2013-02-06 14:58:00,34.8,21.1,30.04,WNW,302,19.6,19.6,57,0.00,OVC,,0.00,WeatherDisplay:10.37,2013-02-06 19:58:00,
2013-02-06 15:03:00,35.1,21.0,30.05,WNW,292,11.1,11.1,56,0.00,BKN,,0.00,WeatherDisplay:10.37,2013-02-06 20:03:00,
2013-02-06 15:08:00,35.2,20.2,30.05,WNW,302,12.7,12.7,54,0.00,BKN,,0.00,WeatherDisplay:10.37,2013-02-06 20:08:00,
2013-02-06 15:13:00,35.6,21.0,30.05,NW,313,10.4,10.4,55,0.00,BKN,,0.00,WeatherDisplay:10.37,2013-02-06 20:13:00,
2013-02-06 15:18:00,35.9,20.9,30.05,NW,312,8.1,8.1,54,0.00,BKN,,0.00,WeatherDisplay:10.37,2013-02-06 20:18:00,
2013-02-06 15:23:00,36.2,20.3,30.06,West,274,9.2,9.2,52,0.00,BKN,,0.00,WeatherDisplay:10.37,2013-02-06 20:23:00,
2013-02-06 15:28:00,36.3,19.9,30.05,West,265,9.2,9.2,51,0.00,BKN,,0.00,WeatherDisplay:10.37,2013-02-06 20:28:00,
2013-02-06 15:33:00,36.0,19.2,30.06,NNW,342,17.3,17.3,50,0.00,BKN,,0.00,WeatherDisplay:10.37,2013-02-06 20:33:00,
2013-02-06 15:38:00,35.7,18.9,30.06,WNW,294,11.5,11.5,50,0.00,BKN,,0.00,WeatherDisplay:10.37,2013-02-06 20:38:00,
2013-02-06 15:43:00,35.4,18.1,30.07,West,270,12.7,12.7,49,0.00,BKN,,0.00,WeatherDisplay:10.37,2013-02-06 20:43:00,
2013-02-06 15:48:00,34.8,18.5,30.07,NNW,339,10.4,10.4,51,0.00,BKN,,0.00,WeatherDisplay:10.37,2013-02-06 20:48:00,
2013-02-06 15:53:00,34.6,18.3,30.07,NW,320,15.0,15.0,51,0.00,BKN,,0.00,WeatherDisplay:10.37,2013-02-06 20:53:00,
2013-02-06 15:58:00,34.5,19.1,30.08,WNW,301,3.6,3.6,53,0.00,BKN,,0.00,WeatherDisplay:10.37,2013-02-06 20:58:00,
2013-02-06 16:03:00,34.3,18.1,30.07,NNW,332,11.5,11.5,51,0.00,SCT,,0.00,WeatherDisplay:10.37,2013-02-06 21:03:00,
2013-02-06 16:08:00,34.1,17.9,30.08,NW,308,10.4,10.4,51,0.00,SCT,,0.00,WeatherDisplay:10.37,2013-02-06 21:08:00,
2013-02-06 16:13:00,34.2,18.0,30.08,NW,315,8.1,8.1,51,0.00,SCT,,0.00,WeatherDisplay:10.37,2013-02-06 21:13:00,
2013-02-06 16:18:00,34.1,17.9,30.08,West,278,9.2,9.2,51,0.00,SCT,,0.00,WeatherDisplay:10.37,2013-02-06 21:18:00,
2013-02-06 16:23:00,34.4,18.2,30.08,North,349,6.9,6.9,51,0.00,SCT,,0.00,WeatherDisplay:10.37,2013-02-06 21:23:00,
2013-02-06 16:28:00,34.5,17.8,30.09,NE,40,6.9,6.9,50,0.00,SCT,,0.00,WeatherDisplay:10.37,2013-02-06 21:28:00,
2013-02-06 16:33:00,34.6,18.3,30.09,West,280,15.0,15.0,51,0.00,SCT,,0.00,WeatherDisplay:10.37,2013-02-06 21:33:00,
2013-02-06 16:38:00,34.5,18.7,30.10,WNW,291,9.2,9.2,52,0.00,SCT,,0.00,WeatherDisplay:10.37,2013-02-06 21:38:00,
2013-02-06 16:43:00,34.5,18.7,30.10,NNE,20,7.8,7.8,52,0.00,SCT,,0.00,WeatherDisplay:10.37,2013-02-06 21:43:00,
2013-02-06 16:48:00,33.9,17.2,30.10,NW,306,9.2,9.2,50,0.00,SCT,,0.00,WeatherDisplay:10.37,2013-02-06 21:48:00,
2013-02-06 16:53:00,33.8,17.6,30.11,NW,315,8.1,8.1,51,0.00,SCT,,0.00,WeatherDisplay:10.37,2013-02-06 21:53:00,
2013-02-06 16:58:00,33.2,17.0,30.11,North,360,6.9,6.9,51,0.00,SCT,,0.00,WeatherDisplay:10.37,2013-02-06 21:58:00,
2013-02-06 17:03:00,33.2,16.6,30.11,North,0,0.0,0.0,50,0.00,CLR,,0.00,WeatherDisplay:10.37,2013-02-06 22:03:00,
2013-02-06 17:08:00,33.0,16.4,30.12,North,360,11.5,11.5,50,0.00,CLR,,0.00,WeatherDisplay:10.37,2013-02-06 22:08:00,
2013-02-06 17:13:00,33.0,16.9,30.12,North,353,0.0,0.0,51,0.00,CLR,,0.00,WeatherDisplay:10.37,2013-02-06 22:13:00,
2013-02-06 17:18:00,32.8,17.1,30.13,North,353,0.0,0.0,52,0.00,CLR,,0.00,WeatherDisplay:10.37,2013-02-06 22:18:00,
2013-02-06 17:23:00,32.3,16.7,30.13,North,353,0.0,0.0,52,0.00,CLR,,0.00,WeatherDisplay:10.37,2013-02-06 22:23:00,
2013-02-06 17:28:00,32.0,16.4,30.14,NW,326,0.0,0.0,52,0.00,CLR,,0.00,WeatherDisplay:10.37,2013-02-06 22:28:00,
2013-02-06 17:33:00,31.9,16.3,30.14,NW,326,8.1,8.1,52,0.00,CLR,,0.00,WeatherDisplay:10.37,2013-02-06 22:33:00,
2013-02-06 17:38:00,31.8,16.6,30.14,NW,305,2.3,2.3,53,0.00,CLR,,0.00,WeatherDisplay:10.37,2013-02-06 22:38:00,
2013-02-06 17:43:00,31.5,16.4,30.15,North,356,3.5,3.5,53,0.00,CLR,,0.00,WeatherDisplay:10.37,2013-02-06 22:43:00,
2013-02-06 17:48:00,31.2,16.1,30.15,NNE,30,4.6,4.6,53,0.00,CLR,,0.00,WeatherDisplay:10.37,2013-02-06 22:48:00,
2013-02-06 17:54:00,31.3,16.2,30.16,NNE,31,2.3,2.3,53,0.00,CLR,,0.00,WeatherDisplay:10.37,2013-02-06 22:54:00,
2013-02-06 17:59:00,31.1,16.0,30.16,NNE,31,0.0,0.0,53,0.00,CLR,,0.00,WeatherDisplay:10.37,2013-02-06 22:59:00,
2013-02-06 18:04:00,31.0,15.9,30.17,NW,326,5.8,0.0,53,0.00,CLR,,0.00,WeatherDisplay:10.37,2013-02-06 23:04:00,
2013-02-06 18:09:00,30.9,16.2,30.17,WNW,288,0.0,0.3,54,0.00,CLR,,0.00,WeatherDisplay:10.37,2013-02-06 23:09:00,
2013-02-06 18:15:00,30.6,15.9,30.17,WNW,285,0.0,0.0,54,0.00,CLR,,0.00,WeatherDisplay:10.37,2013-02-06 23:15:00,
2013-02-06 18:20:00,30.5,15.9,30.18,WNW,285,0.0,0.0,54,0.00,CLR,,0.00,WeatherDisplay:10.37,2013-02-06 23:20:00,
2013-02-06 18:25:00,30.4,15.8,30.18,West,272,3.5,0.0,54,0.00,CLR,,0.00,WeatherDisplay:10.37,2013-02-06 23:25:00,
2013-02-06 18:30:00,30.0,15.4,30.18,ESE,117,11.5,11.5,54,0.00,CLR,,0.00,WeatherDisplay:10.37,2013-02-06 23:30:00,
2013-02-06 18:35:00,30.0,15.8,30.18,NNW,330,5.5,5.5,55,0.00,CLR,,0.00,WeatherDisplay:10.37,2013-02-06 23:35:00,
2013-02-06 18:40:00,30.3,15.7,30.19,North,6,6.9,6.9,54,0.00,CLR,,0.00,WeatherDisplay:10.37,2013-02-06 23:40:00,
2013-02-06 18:45:00,30.1,15.5,30.19,ENE,61,4.6,0.0,54,0.00,CLR,,0.00,WeatherDisplay:10.37,2013-02-06 23:45:00,
2013-02-06 18:50:00,30.0,15.4,30.19,West,280,6.9,6.9,54,0.00,CLR,,0.00,WeatherDisplay:10.37,2013-02-06 23:50:00,
2013-02-06 18:55:00,30.1,15.0,30.20,NW,316,0.0,0.0,53,0.00,CLR,,0.00,WeatherDisplay:10.37,2013-02-06 23:55:00,
2013-02-06 19:00:00,29.8,14.8,30.20,NW,326,0.0,1.0,53,0.00,CLR,,0.00,WeatherDisplay:10.37,2013-02-07 00:00:00,
2013-02-06 19:05:00,29.9,14.9,30.20,NNE,13,4.6,4.6,53,0.00,CLR,,0.00,WeatherDisplay:10.37,2013-02-07 00:05:00,
2013-02-06 19:10:00,29.5,14.5,30.21,NNW,340,6.9,6.9,53,0.00,CLR,,0.00,WeatherDisplay:10.37,2013-02-07 00:10:00,
2013-02-06 19:15:00,29.5,14.5,30.21,NNW,329,0.0,0.0,53,0.00,CLR,,0.00,WeatherDisplay:10.37,2013-02-07 00:15:00,
2013-02-06 19:21:00,29.5,14.5,30.22,NW,313,0.0,0.8,53,0.00,CLR,,0.00,WeatherDisplay:10.37,2013-02-07 00:21:00,
2013-02-06 19:26:00,29.2,14.2,30.22,ENE,78,0.0,0.0,53,0.00,CLR,,0.00,WeatherDisplay:10.37,2013-02-07 00:26:00,
2013-02-06 19:31:00,28.9,13.9,30.22,ENE,78,0.0,0.0,53,0.00,CLR,,0.00,WeatherDisplay:10.37,2013-02-07 00:31:00,
2013-02-06 19:36:00,28.7,14.2,30.23,ENE,78,0.0,0.0,54,0.00,CLR,,0.00,WeatherDisplay:10.37,2013-02-07 00:36:00,
2013-02-06 19:41:00,28.4,13.9,30.23,NNE,24,5.8,5.8,54,0.00,CLR,,0.00,WeatherDisplay:10.37,2013-02-07 00:41:00,
2013-02-06 19:46:00,28.5,14.0,30.24,WNW,288,3.5,0.0,54,0.00,CLR,,0.00,WeatherDisplay:10.37,2013-02-07 00:46:00,
2013-02-06 19:52:00,28.4,12.6,30.23,ENE,64,5.8,5.8,51,0.00,CLR,,0.00,WeatherDisplay:10.37,2013-02-07 00:52:00,
2013-02-06 19:57:00,28.5,12.2,30.24,North,11,6.9,6.9,50,0.00,CLR,,0.00,WeatherDisplay:10.37,2013-02-07 00:57:00,
2013-02-06 20:02:00,28.5,12.2,30.24,North,359,5.8,5.8,50,0.00,CLR,,0.00,WeatherDisplay:10.37,2013-02-07 01:02:00,
2013-02-06 20:07:00,28.3,12.5,30.24,North,359,0.0,0.0,51,0.00,CLR,,0.00,WeatherDisplay:10.37,2013-02-07 01:07:00,
2013-02-06 20:12:00,28.0,12.2,30.24,North,359,0.0,0.0,51,0.00,CLR,,0.00,WeatherDisplay:10.37,2013-02-07 01:12:00,
2013-02-06 20:17:00,28.0,11.8,30.25,North,353,0.0,0.0,50,0.00,CLR,,0.00,WeatherDisplay:10.37,2013-02-07 01:17:00,
2013-02-06 20:22:00,27.9,11.7,30.25,North,353,0.0,0.0,50,0.00,CLR,,0.00,WeatherDisplay:10.37,2013-02-07 01:22:00,
2013-02-06 20:27:00,27.6,11.4,30.25,NNW,332,3.5,3.5,50,0.00,CLR,,0.00,WeatherDisplay:10.37,2013-02-07 01:27:00,
2013-02-06 20:32:00,27.7,11.9,30.26,NNW,332,0.0,0.0,51,0.00,CLR,,0.00,WeatherDisplay:10.37,2013-02-07 01:32:00,
2013-02-06 20:37:00,27.5,11.8,30.26,North,1,0.0,0.0,51,0.00,CLR,,0.00,WeatherDisplay:10.37,2013-02-07 01:37:00,
2013-02-06 20:42:00,27.0,10.4,30.27,NNE,13,1.1,0.0,49,0.00,CLR,,0.00,WeatherDisplay:10.37,2013-02-07 01:42:00,
2013-02-06 20:47:00,27.0,10.4,30.27,NNE,17,2.3,0.0,49,0.00,CLR,,0.00,WeatherDisplay:10.37,2013-02-07 01:47:00,
2013-02-06 20:52:00,26.7,9.2,30.27,NW,306,5.8,5.8,47,0.00,CLR,,0.00,WeatherDisplay:10.37,2013-02-07 01:52:00,
2013-02-06 20:57:00,26.9,9.4,30.27,NW,316,4.6,4.6,47,0.00,CLR,,0.00,WeatherDisplay:10.37,2013-02-07 01:57:00,
2013-02-06 21:02:00,26.7,8.7,30.28,North,360,0.0,0.0,46,0.00,CLR,,0.00,WeatherDisplay:10.37,2013-02-07 02:02:00,
2013-02-06 21:07:00,26.8,7.8,30.28,ENE,76,6.9,6.9,44,0.00,CLR,,0.00,WeatherDisplay:10.37,2013-02-07 02:07:00,
2013-02-06 21:12:00,26.6,7.6,30.28,NNE,13,4.6,4.6,44,0.00,CLR,,0.00,WeatherDisplay:10.37,2013-02-07 02:12:00,
2013-02-06 21:17:00,26.5,6.5,30.28,NNE,28,6.9,6.9,42,0.00,CLR,,0.00,WeatherDisplay:10.37,2013-02-07 02:17:00,
2013-02-06 21:22:00,26.6,6.6,30.28,NNE,31,4.6,4.6,42,0.00,CLR,,0.00,WeatherDisplay:10.37,2013-02-07 02:22:00,
2013-02-06 21:27:00,26.7,6.7,30.28,NW,308,2.3,0.0,42,0.00,CLR,,0.00,WeatherDisplay:10.37,2013-02-07 02:27:00,
2013-02-06 21:32:00,26.2,5.7,30.28,East,86,3.5,3.5,41,0.00,CLR,,0.00,WeatherDisplay:10.37,2013-02-07 02:32:00,
2013-02-06 21:38:00,26.3,5.3,30.28,NNE,21,3.5,3.5,40,0.00,CLR,,0.00,WeatherDisplay:10.37,2013-02-07 02:38:00,
2013-02-06 21:43:00,26.2,5.2,30.28,North,0,5.8,5.8,40,0.00,CLR,,0.00,WeatherDisplay:10.37,2013-02-07 02:43:00,
2013-02-06 21:48:00,25.9,5.4,30.28,ENE,58,1.1,0.0,41,0.00,CLR,,0.00,WeatherDisplay:10.37,2013-02-07 02:48:00,
2013-02-06 21:53:00,25.7,5.2,30.28,NW,316,3.8,3.8,41,0.00,CLR,,0.00,WeatherDisplay:10.37,2013-02-07 02:53:00,
2013-02-06 21:58:00,25.8,4.8,30.28,North,1,0.0,0.0,40,0.00,CLR,,0.00,WeatherDisplay:10.37,2013-02-07 02:58:00,
2013-02-06 22:03:00,25.6,5.2,30.29,North,1,0.0,0.0,41,0.00,CLR,,0.00,WeatherDisplay:10.37,2013-02-07 03:03:00,
2013-02-06 22:08:00,25.3,5.4,30.29,North,1,0.0,0.0,42,0.00,CLR,,0.00,WeatherDisplay:10.37,2013-02-07 03:08:00,
2013-02-06 22:13:00,25.0,4.6,30.29,North,1,0.0,0.0,41,0.00,CLR,,0.00,WeatherDisplay:10.37,2013-02-07 03:13:00,
2013-02-06 22:18:00,25.1,5.2,30.29,NE,45,1.1,1.1,42,0.00,CLR,,0.00,WeatherDisplay:10.37,2013-02-07 03:18:00,
2013-02-06 22:23:00,24.6,4.8,30.30,NNW,330,9.2,9.2,42,0.00,CLR,,0.00,WeatherDisplay:10.37,2013-02-07 03:23:00,
2013-02-06 22:28:00,24.8,5.5,30.30,North,352,0.0,0.0,43,0.00,CLR,,0.00,WeatherDisplay:10.37,2013-02-07 03:28:00,
2013-02-06 22:33:00,24.6,4.8,30.30,NNW,339,6.9,6.9,42,0.00,CLR,,0.00,WeatherDisplay:10.37,2013-02-07 03:33:00,
2013-02-06 22:38:00,24.6,4.8,30.30,North,0,6.9,6.9,42,0.00,CLR,,0.00,WeatherDisplay:10.37,2013-02-07 03:38:00,
2013-02-06 22:43:00,24.3,5.0,30.30,North,360,5.8,5.8,43,0.00,CLR,,0.00,WeatherDisplay:10.37,2013-02-07 03:43:00,
2013-02-06 22:48:00,24.3,5.0,30.30,NNE,23,3.5,0.0,43,0.00,CLR,,0.00,WeatherDisplay:10.37,2013-02-07 03:48:00,
2013-02-06 22:53:00,24.1,4.8,30.31,North,357,4.6,4.6,43,0.00,CLR,,0.00,WeatherDisplay:10.37,2013-02-07 03:53:00,
2013-02-06 22:58:00,24.2,4.9,30.31,West,280,4.6,4.6,43,0.00,CLR,,0.00,WeatherDisplay:10.37,2013-02-07 03:58:00,
2013-02-06 23:03:00,23.9,5.2,30.31,WNW,295,8.1,8.1,44,0.00,CLR,,0.00,WeatherDisplay:10.37,2013-02-07 04:03:00,
2013-02-06 23:08:00,23.7,5.0,30.32,WNW,292,0.0,0.0,44,0.00,CLR,,0.00,WeatherDisplay:10.37,2013-02-07 04:08:00,
2013-02-06 23:13:00,23.5,4.3,30.32,NNW,346,3.2,3.2,43,0.00,CLR,,0.00,WeatherDisplay:10.37,2013-02-07 04:13:00,
2013-02-06 23:18:00,23.6,3.9,30.32,NNE,31,0.0,0.8,42,0.00,CLR,,0.00,WeatherDisplay:10.37,2013-02-07 04:18:00,
2013-02-06 23:23:00,23.5,3.8,30.32,NW,326,0.0,0.0,42,0.00,CLR,,0.00,WeatherDisplay:10.37,2013-02-07 04:23:00,
2013-02-06 23:28:00,23.4,3.7,30.31,North,8,2.3,2.3,42,0.00,CLR,,0.00,WeatherDisplay:10.37,2013-02-07 04:28:00,
2013-02-06 23:33:00,23.4,3.7,30.31,North,354,0.0,0.0,42,0.00,CLR,,0.00,WeatherDisplay:10.37,2013-02-07 04:33:00,
2013-02-06 23:38:00,23.4,4.2,30.31,North,354,0.0,0.0,43,0.00,CLR,,0.00,WeatherDisplay:10.37,2013-02-07 04:38:00,
2013-02-06 23:43:00,23.1,3.4,30.32,North,360,0.0,0.0,42,0.00,CLR,,0.00,WeatherDisplay:10.37,2013-02-07 04:43:00,
2013-02-06 23:48:00,23.1,4.4,30.32,North,360,0.0,0.0,44,0.00,CLR,,0.00,WeatherDisplay:10.37,2013-02-07 04:48:00,
2013-02-06 23:53:00,22.8,4.6,30.32,North,360,0.0,0.0,45,0.00,CLR,,0.00,WeatherDisplay:10.37,2013-02-07 04:53:00,
2013-02-06 23:58:00,22.5,3.4,30.32,North,360,0.0,0.0,43,0.00,CLR,,0.00,WeatherDisplay:10.37,2013-02-07 04:58:00,